Tracking 29594 objects as of 20-Sep-2024
HD Live streaming from Space Station
objects crossing your sky now

SL-8 DEB

Track SL-8 DEB now!
10-day predictions


NORAD ID: 21109
Int'l Code: 1991-009K
Perigee: 1,467.1 km
Apogee: 1,726.9 km
Inclination: 74.0 °
Period: 118.0 minutes
Semi major axis: 7967 km
RCS: 0.6993 m2 (medium)
Launch date: February 12, 1991
Source: Commonwealth of Independent States (former USSR) (CIS)
Launch site: PLESETSK MISSILE AND SPACE COMPLEX (PKMTR)

Note: This is SATELLITE DEBRIS
Your satellite tracking list
Your tracking list is empty




NASA's NSSDC Master Catalog

Two Line Element Set (TLE):
1 21109U 91009K   24263.48886995  .00000249  00000-0  24161-2 0  9997
2 21109  74.0274 276.9425 0163053 142.9412 329.8706 12.20615221495820
Source of the keplerian elements: AFSPC